Regional Weather Roundup
Issued by NWS Newport/Morehead, NC

Current Version | Previous Version | Graphics & Text | Print | Product List | Glossary Off
Versions: 1 2 3 4 5 6 7 8 9 10 11 12 13 14 15 16 17 18 19 20 21 22 23 24 25 26 27 28 29 30 31 32 33 34 35 36 37 38 39 40 41 42 43 44 45 46 47 48 49 50

000
ASUS42 KMHX 160910
RWRMHX
WEATHER ROUNDUP FOR EASTERN NORTH CAROLINA
NATIONAL WEATHER SERVICE NEWPORT/MOREHEAD CITY NC
500 AM EDT WED APR 16 2014

NOTE: "FAIR" INDICATES FEW OR NO CLOUDS BELOW 12,000 FEET
WITH NO SIGNIFICANT WEATHER AND/OR OBSTRUCTIONS TO VISIBILITY

NCZ015>017-031-032-045>047-102-103-161000-
NORTH COAST

CITY           SKY/WX    TMP DP  RH WIND       PRES   REMARKS
EDENTON        CLEAR     37  32  82 N10G22    30.15R
ELIZABETH CITY MOCLDY    39  29  67 N22G32    30.14R
KITTY HAWK     CLOUDY    42  34  75 N10G28    30.09R
MANTEO         CLOUDY    42  34  73 N24G38    30.09R

$$

NCZ045>047-081-094-103-104-161000-
CENTRAL COAST

CITY           SKY/WX    TMP DP  RH WIND       PRES   REMARKS
FRISCO         LGT RAIN  44  39  82 N20G38    30.05R
SWANQUARTER      N/A     39 N/A N/A N16       30.09R

$$

NCZ095-097-098-100-101-161000-
SOUTHERN COAST

CITY           SKY/WX    TMP DP  RH WIND       PRES   REMARKS
BEAUFORT       MOCLDY    41  32  70 N21G32    30.09R
CEDAR ISLAND     N/A     45 N/A N/A NW31G44   30.12R
JACKSONVILLE   CLEAR     40  34  79 N15       30.13R
NEWPORT          N/A     39  34  81 N16G22      N/A
PINEY ISLAND   CLOUDY    45  39  79 N25G35    30.09R
WILMINGTON     PTCLDY    44  35  70 N13G24    30.12R


$$

NCZ011>013-027>030-043-044-078>080-089-090>093-098-161000-
COASTAL PLAIN

CITY           SKY/WX    TMP DP  RH WIND       PRES   REMARKS
AHOSKIE        CLEAR     35  27  74 N9        30.19R
CLINTON        CLOUDY    42  33  71 N10G16    30.16R
ELIZABETHTOWN  MOCLDY    40  31  69 N3        30.14R
GOLDSBORO      MOCLDY    40  34  77 NE8G21    30.15R
GREENVILLE     CLEAR     37  30  75 N15G24    30.18R
HAVELOCK       PTCLDY    41  31  67 N24G40    30.12R
KENANSVILLE    CLOUDY    40  32  73 N12G22    30.16R
KINSTON        PTCLDY    39  34  82 N8G17     30.17R
NEW BERN       CLEAR     41  32  70 N13G21    30.14R
RICHLANDS      PTCLDY    39  30  70 N7        30.15R
ROANOKE RAPIDS NOT AVBL
ROCKY MOUNT      N/A    N/A N/A N/A MISG      30.18R
WASHINGTON     CLEAR     38  32  79 N16G26    30.15R
WHITEVILLE     MOCLDY    40  31  67 N5        30.14R

$$

AMZ130-135-150-152-154-156-158-170-250-252-270-ANZ085-086-088-633-658-670-161000-
MARINE OBSERVATIONS

STATION/POSITION TIME  TEMP    WIND        PRES    WAVE   SWELL
                       AIR SEA DIR/SP/G            HT/PER HT/PER
                 (UTC) (F)     (DEG/KT/KT) (MB)    (FT/S) (FT/S)
CHESAPEAKE LIGHT 0800   41     340/ 37/ 39 1018.2
BUOY 44014       0900   44 54  360/ 29/ 37 1017.4   12/ 8
DUCK             0900      48  350/ 31/ 37 1017.4
2E DUCK          0900      47                N/A     9/ 7   2/11
OREGON INLET     0900      65  350/ 20/ 29 1018.1
BUOY 44095       0900      62                N/A    12/ 8   2/11
HATTERAS CG      0900   47 63   10/ 22/ 39 1017.3
DIAMOND BUOY     NOT AVBL
CAPE LOOKOUT     0900   44     350/ 25/ 28 1018.4
BEAUFORT LAB     0900   43 64  360/ 23/ 31 1018.2
30 SE NEW RIVER  0900   47 63   10/ 29/ 37 1017.9    8/ 6
5 SE WRIGHTSVILL 0800   48 60   10/ 25/ 31 1017.9
FRYING PAN BUOY  0900   51 66   20/ 27/ 35 1017.4    9/ 7
BUOY 41001       NOT AVBL
BUOY 41002       NOT AVBL
BUOY 41004       NOT AVBL

$$



USA.gov is the U.S. government's official web portal to all federal, state and local government web resources and services.